Springfield, CO

2:04 AM MST on February 07, 2016 (GMT -0700)
Springfield

Weather History for KSPD - October, 2012

Change the Weather History Date:

Thursday, October 4, 2012

  Actual Average Record
Temperature  
Mean Temperature 47 °F -  
Max Temperature 56 °F 74 °F 88 °F (2007)
Min Temperature 37 °F 44 °F 28 °F (1999)
Degree Days  
Heating Degree Days 18 7  
Month to date heating degree days 30 27  
Since 1 July heating degree days 96 117  
Cooling Degree Days 0 1  
Month to date cooling degree days 3 4  
Year to date cooling degree days 1419 1021  
Moisture  
Dew Point 29 °F    
Average Humidity 51    
Maximum Humidity 70    
Minimum Humidity 32    
Precipitation  
Precipitation 0.00 in 0.05 in 0.00 in (2016)
Month to date precipitation 0.00 0.24  
Year to date precipitation 7.12 15.31  
Sea Level Pressure  
Sea Level Pressure 30.21 in    
Wind  
Wind Speed 10 mph (East)    
Max Wind Speed 14 mph    
Max Gust Speed 189 mph    
T = Trace of Precipitation, MM = Missing Value Source: NWS Daily Summary

Daily Weather History Graph

Daily Weather History Graph

Search for Another Location

Airport or City:

Trip Planner

Search our weather history database for the weather conditions in past years. The results will help you decide how hot, cold, wet, or windy it might be!

Date:

Astronomy

Oct. 04, 2012 Rise Set
Actual Time 6:48 AM MDT 6:28 PM MDT
Civil Twilight 6:22 AM MDT 6:54 PM MDT
Nautical Twilight 5:52 AM MDT 7:24 PM MDT
Astronomical Twilight 5:22 AM MDT 7:54 PM MDT
Moon 9:11 PM MDT (10/4) 11:01 AM MDT (10/4)
Length of Visible Light 12h 31m
Length of Day
11h 39m
Waning Gibbous, 81% of the Moon is Illuminated
Oct 4
Waning Gibbous
Oct 8
Last Quarter
Oct 15
New
Oct 21
First Quarter
Oct 29
Full

Hourly Weather History & Observations

Time (MDT) Temp. Windchill Dew Point Humidity Pressure Visibility Wind Dir Wind Speed Gust Speed Precip Events Conditions
12:56 AM 48.9 °F - 35.1 °F 59% 30.08 in - North - - N/A   Unknown
1:56 AM 46.0 °F - 33.1 °F 61% 30.10 in - North - - N/A   Unknown
2:56 AM 44.1 °F - 33.1 °F 65% 30.11 in - North - - N/A   Unknown
3:56 AM 42.1 °F - 30.9 °F 65% 30.13 in - North - - N/A   Unknown
4:56 AM 39.9 °F - 28.9 °F 65% 30.16 in - North - - N/A   Unknown
5:56 AM 37.9 °F - 28.0 °F 68% 30.20 in - North - - N/A   Unknown
6:56 AM 37.0 °F 23.1 °F 28.0 °F 70% 30.24 in - NNW 38.0 mph 86.3 mph N/A   Unknown
7:28 AM 37.4 °F - 28.4 °F 70% 30.34 in - North - - N/A   Squalls
7:56 AM 39.9 °F - 28.0 °F 63% 30.25 in - North - - N/A   Unknown
8:56 AM 43.0 °F - 28.0 °F 56% 30.27 in - North - - N/A   Unknown
9:56 AM 45.0 °F - 28.0 °F 52% 30.27 in - North - - N/A   Unknown
10:05 AM 46.4 °F 35.8 °F 28.4 °F 50% 30.35 in - North 40.3 mph 131.2 mph N/A   Squalls
10:24 AM 46.4 °F 37.4 °F 28.4 °F 50% 30.36 in - North 28.8 mph 131.2 mph N/A   Squalls
10:56 AM 48.0 °F - 28.0 °F 46% 30.26 in - North - - N/A   Unknown
11:23 AM 48.2 °F - 26.6 °F 43% 30.34 in - North 61.0 mph 73.6 mph N/A   Squalls
11:56 AM 51.1 °F - 28.0 °F 41% - - North - - N/A   Unknown
12:56 PM 52.0 °F - 27.0 °F 38% 30.22 in - ENE 10.4 mph - N/A   Unknown
1:56 PM 54.0 °F - 27.0 °F 35% 30.18 in - ENE 9.2 mph - N/A   Unknown
2:56 PM 55.0 °F - 27.0 °F 34% 30.17 in - East 8.1 mph - N/A   Unknown
3:56 PM 55.0 °F - 28.0 °F 35% 30.16 in - East 5.8 mph - N/A   Unknown
4:56 PM 54.0 °F - 28.0 °F 37% 30.17 in - ESE 6.9 mph - N/A   Unknown
5:56 PM 53.1 °F - 28.0 °F 38% 30.18 in - SE 9.2 mph - N/A   Unknown
6:56 PM 48.0 °F - 30.0 °F 50% 30.20 in - ESE 6.9 mph - N/A   Unknown
7:56 PM 45.0 °F 41.2 °F 30.9 °F 58% 30.21 in - ESE 6.9 mph - N/A   Unknown
8:56 PM 44.1 °F 40.1 °F 30.9 °F 60% 30.21 in - SE 6.9 mph - N/A   Unknown
9:56 PM 43.0 °F 38.2 °F 30.0 °F 60% 30.22 in - ESE 8.1 mph - N/A   Unknown
10:56 PM 41.0 °F 35.8 °F 30.0 °F 65% 30.21 in - ESE 8.1 mph - N/A   Unknown
11:56 PM 41.0 °F 35.8 °F 30.0 °F 65% 30.18 in - SE 8.1 mph - N/A   Unknown